CZ-3B DEB, 40842

Orbit data source: Space-Track

CZ-3B DEB, 40842 is space debris in HEO originally from a launch on Mon, 19 Dec 2011 UTC launched from the Xichang Space Center, China (XSC). Debris objects in space refer to the collection of defunct objects orbiting the Earth. Examples of debris include non-operational satellites, rocket bodies, and fragments generated from explosions, collisions, or faulty payload assembly.

Loading next visibility...
CZ-3B DEB details
Identifier
40842, 2011-077X
Orbit
HEO
Last TLE update14 hours ago
Origin
Flag of CNCASC (CN / PRC)
ManufacturerCALT
MissionSpacecraft
Bus & MotorUnknown
MassUnknown
Launch date (UTC)
2011-12-19 (13 years ago)
Launch vehicleUnknown
Launch site
Xichang Space Center, China (XSC)
Object type
Payload
Rocket body
Debris
Shape & HBRUnknown
Radar Cross SectionMedium (>0.1 m² and <1 m²)

Expand to show TLE details & history

TLE from 14 hours ago
0 CZ-3B DEB
1 40842U 11077X   24361.09996595  .00000114  00000-0  36101-2 0  9991
2 40842  21.4608 175.5232 7525778 204.0521  83.8055  1.76701366 70677
Epoch: 2024-12-26T02:23Z
Definitive object data (Epoch: 2024-12-26T02:23:57.058Z)
Latitude-0.00002°
Longitude44.34756°
Altitude33,615.199 km
Speed2.478 km/s
True Right ascension11h 41m 40s
True Declination0° 00' 00"
Sunlit
Object was in daylight at TLE epoch
Visualization TLE readout
Latitude1.10874°
Longitude47.02894°
Altitude35,494.907 km
Speed2.29 km/s
Apparent Right ascension11h 28m 28s
Apparent Declination-4° 43' 52"
Sunlit
Object is in daylight
Visualization observer readout
Local Sidereal Time15:40:10
Azimuth248.231° W
Elevation17.159°
Doppler factor1
Orbital elements
Apogee altitude44,280.12 km
Perigee altitude773.601 km
Semi-major axis28,904.997 km
Eccentricity0.7525778
Inclination21.4608°
RAAN175.5232°
Arg. of periapsis204.0521°
True anomaly155.91733°
Mean anomaly83.8055°
Eccentric anomaly120.83136°
Mean motion0.44166 °/min
BSTAR0.0036101
Orbital period815.11 mins
Loading maneuver chart data...
Loading historical data...
Loading historical data...
Loading historical data...
Loading historical data...
Loading historical data...
Loading historical data...
Loading historical data...

CZ-3B DEB Visibility forecast

Observer location: undefined°, undefined

Span
Click to sort rows by Start time (UTC) header in descending order
Start Az.
Max El. time (UTC)
Max El. Az.
Max El.
End time (UTC)
End Az.
104 mins2024-12-26 16:18:01.241Z248.216° W2024-12-26 16:18:01.241Z248.216° W16.431°2024-12-26 18:02:01.241Z262.302° W
400 mins2024-12-27 08:43:01.241Z94.379° ESE2024-12-27 13:52:01.241Z115.684° SE35.487°2024-12-27 15:23:01.241Z92.785° ESE
|